"Sample Date","Sample Time","Sample Value","Units","Flow Rate","Sample Interval","Number Channels","Micron Size 0","Counts/Channel 0","Micron Size 1","Counts/Channel 1","Micron Size 2","Counts/Channel 2","Micron Size 3","Counts/Channel 3","Micron Size 4","Counts/Channel 4","Micron Size 5","Counts/Channel 5","Micron Size 6","Counts/Channel 6","Micron Size 7","Counts/Channel 7","Micron Size 8","Counts/Channel 8","Micron Size 9","Counts/Channel 9","Micron Size 10","Counts/Channel 10","Micron Size 11","Counts/Channel 11","Micron Size 12","Counts/Channel 12","Micron Size 13","Counts/Channel 13","Micron Size 14","Counts/Channel 14","Micron Size 15","Counts/Channel 15","Micron Size 16","Counts/Channel 16","Micron Size 17","Counts/Channel 17","Micron Size 18","Counts/Channel 18","Micron Size 19","Counts/Channel 19","Micron Size 20","Counts/Channel 20","Micron Size 21","Counts/Channel 21","Micron Size 22","Counts/Channel 22","Micron Size 23","Counts/Channel 23","Micron Size 24","Counts/Channel 24","Micron Size 25","Counts/Channel 25","Micron Size 26","Counts/Channel 26","Micron Size 27","Counts/Channel 27","Micron Size 28","Counts/Channel 28","Micron Size 29","Counts/Channel 29","Micron Size 30","Counts/Channel 30","Micron Size 31","Counts/Channel 31"
"03/07/08","09:00:02",57489.000,"cc",28335.428,6.00,6,0.100,46652.000,0.200,6886.000,0.300,1964.000,0.500,1539.000,1.000,448.000,5.000,0
"03/07/08","09:00:08",80834.000,"cc",28311.104,6.00,6,0.100,66413.000,0.200,9766.000,0.300,2297.000,0.500,1775.000,1.000,583.000,5.000,0
"03/07/08","09:00:14",64257.000,"cc",28328.055,6.00,6,0.100,52461.000,0.200,7721.000,0.300,1966.000,0.500,1613.000,1.000,496.000,5.000,0
"03/07/08","09:00:20",58106.000,"cc",28311.715,6.00,6,0.100,47540.000,0.200,6952.000,0.300,1809.000,0.500,1400.000,1.000,405.000,5.000,0
"03/07/08","09:00:26",42334.000,"cc",28302.637,6.00,6,0.100,34122.000,0.200,5150.000,0.300,1540.000,0.500,1197.000,1.000,325.000,5.000,0
"03/07/08","09:00:32",35485.000,"cc",28331.488,6.00,6,0.100,28217.000,0.200,4357.000,0.300,1392.000,0.500,1180.000,1.000,339.000,5.000,0
"03/07/08","09:00:38",51459.000,"cc",28267.791,6.00,6,0.100,42288.000,0.200,6002.000,0.300,1562.000,0.500,1229.000,1.000,378.000,5.000,0
"03/07/08","09:00:44",30930.000,"cc",28336.992,6.00,6,0.100,24626.000,0.200,3751.000,0.300,1207.000,0.500,1031.000,1.000,315.000,5.000,0
"03/07/08","09:00:50",50493.000,"cc",28340.135,6.00,6,0.100,41815.000,0.200,5794.000,0.300,1422.000,0.500,1130.000,1.000,332.000,5.000,0
"03/07/08","09:00:56",80169.000,"cc",28271.762,6.00,6,0.100,67133.000,0.200,9138.000,0.300,1942.000,0.500,1474.000,1.000,482.000,5.000,0
"03/07/08","09:01:02",52493.000,"cc",28293.607,6.00,6,0.100,43585.000,0.200,5977.000,0.300,1403.000,0.500,1164.000,1.000,364.000,5.000,0
"03/07/08","09:01:08",64141.000,"cc",28254.695,6.00,6,0.100,54013.000,0.200,7142.000,0.300,1504.000,0.500,1137.000,1.000,345.000,5.000,0
"03/07/08","09:01:14",34822.000,"cc",28308.799,6.00,6,0.100,27248.000,0.200,4248.000,0.300,1558.000,0.500,1381.000,1.000,387.000,5.000,0
"03/07/08","09:01:20",38318.000,"cc",28318.688,6.00,6,0.100,30673.000,0.200,4557.000,0.300,1493.000,0.500,1248.000,1.000,347.000,5.000,0
"03/07/08","09:01:26",59144.000,"cc",28314.570,6.00,6,0.100,48794.000,0.200,6778.000,0.300,1769.000,0.500,1423.000,1.000,380.000,5.000,0
"03/07/08","09:01:32",35073.000,"cc",28309.527,6.00,6,0.100,27572.000,0.200,4279.000,0.300,1508.000,0.500,1301.000,1.000,413.000,5.000,0
"03/07/08","09:01:38",33213.000,"cc",28387.674,6.00,6,0.100,24948.000,0.200,4340.000,0.300,1871.000,0.500,1581.000,1.000,473.000,5.000,0
"03/07/08","09:01:44",42216.000,"cc",28306.432,6.00,6,0.100,33384.000,0.200,5137.000,0.300,1774.000,0.500,1508.000,1.000,413.000,5.000,0
"03/07/08","09:01:50",48472.000,"cc",28310.082,6.00,6,0.100,39859.000,0.200,5560.000,0.300,1478.000,0.500,1223.000,1.000,352.000,5.000,0
"03/07/08","09:01:56",51196.000,"cc",28312.523,6.00,6,0.100,42521.000,0.200,5861.000,0.300,1386.000,0.500,1091.000,1.000,337.000,5.000,0
"03/07/08","09:02:02",69470.000,"cc",28320.934,6.00,6,0.100,57806.000,0.200,8060.000,0.300,1735.000,0.500,1424.000,1.000,445.000,5.000,0
"03/07/08","09:02:08",58081.000,"cc",28380.502,6.00,6,0.100,47506.000,0.200,6874.000,0.300,1822.000,0.500,1452.000,1.000,427.000,5.000,0
"03/07/08","09:02:14",39479.000,"cc",28272.701,6.00,6,0.100,31278.000,0.200,4857.000,0.300,1635.000,0.500,1381.000,1.000,328.000,5.000,0
"03/07/08","09:02:20",40532.000,"cc",28308.324,6.00,6,0.100,32461.000,0.200,4871.000,0.300,1550.000,0.500,1248.000,1.000,402.000,5.000,0
"03/07/08","09:02:26",54838.000,"cc",28346.147,6.00,6,0.100,44518.000,0.200,6547.000,0.300,1869.000,0.500,1472.000,1.000,432.000,5.000,0
"03/07/08","09:02:32",49217.000,"cc",28276.316,6.00,6,0.100,39542.000,0.200,5860.000,0.300,1834.000,0.500,1546.000,1.000,435.000,5.000,0
"03/07/08","09:02:38",43073.000,"cc",28333.211,6.00,6,0.100,35180.000,0.200,5031.000,0.300,1394.000,0.500,1113.000,1.000,355.000,5.000,0
"03/07/08","09:02:44",47810.000,"cc",28404.424,6.00,6,0.100,39654.000,0.200,5454.000,0.300,1305.000,0.500,1075.000,1.000,322.000,5.000,0
"03/07/08","09:02:50",88110.000,"cc",28288.373,6.00,6,0.100,74400.000,0.200,10107.000,0.300,1789.000,0.500,1422.000,1.000,392.000,5.000,0
"03/07/08","09:02:56",151608.000,"cc",28237.406,6.00,6,0.100,129928.000,0.200,17621.000,0.300,2224.000,0.500,1424.000,1.000,411.000,5.000,0
"03/07/08","09:03:02",78515.000,"cc",28262.086,6.00,6,0.100,66696.000,0.200,8717.000,0.300,1587.000,0.500,1207.000,1.000,308.000,5.000,0
"03/07/08","09:03:08",98145.000,"cc",28359.832,6.00,6,0.100,82684.000,0.200,11366.000,0.300,2119.000,0.500,1515.000,1.000,461.000,5.000,0
"03/07/08","09:03:14",92957.000,"cc",28332.947,6.00,6,0.100,78494.000,0.200,10573.000,0.300,1960.000,0.500,1506.000,1.000,424.000,5.000,0
"03/07/08","09:03:20",96497.000,"cc",28311.889,6.00,6,0.100,81280.000,0.200,11062.000,0.300,2108.000,0.500,1586.000,1.000,461.000,5.000,0
"03/07/08","09:03:26",90163.000,"cc",28336.588,6.00,6,0.100,76688.000,0.200,10276.000,0.300,1602.000,0.500,1160.000,1.000,437.000,5.000,0
"03/07/08","09:03:32",61623.000,"cc",28281.510,6.00,6,0.100,52018.000,0.200,6795.000,0.300,1418.000,0.500,1103.000,1.000,289.000,5.000,0
"03/07/08","09:03:38",97642.000,"cc",28360.145,6.00,6,0.100,83424.000,0.200,11015.000,0.300,1624.000,0.500,1213.000,1.000,366.000,5.000,0
"03/07/08","09:03:44",88782.000,"cc",28364.068,6.00,6,0.100,76057.000,0.200,9782.000,0.300,1526.000,0.500,1110.000,1.000,307.000,5.000,0
"03/07/08","09:03:50",75020.000,"cc",28273.783,6.00,6,0.100,63498.000,0.200,8389.000,0.300,1595.000,0.500,1192.000,1.000,346.000,5.000,0
"03/07/08","09:03:56",104557.000,"cc",28319.078,6.00,6,0.100,89091.000,0.200,11814.000,0.300,1864.000,0.500,1382.000,1.000,406.000,5.000,0
"03/07/08","09:04:02",126840.000,"cc",28302.018,6.00,6,0.100,108230.000,0.200,14676.000,0.300,2123.000,0.500,1392.000,1.000,419.000,5.000,0
"03/07/08","09:04:08",69679.000,"cc",28230.170,6.00,6,0.100,58935.000,0.200,7866.000,0.300,1424.000,0.500,1131.000,1.000,323.000,5.000,0
"03/07/08","09:04:14",46328.000,"cc",28347.596,6.00,6,0.100,38161.000,0.200,5243.000,0.300,1454.000,0.500,1151.000,1.000,319.000,5.000,0
"03/07/08","09:04:20",80909.000,"cc",28307.881,6.00,6,0.100,66844.000,0.200,9575.000,0.300,2293.000,0.500,1702.000,1.000,495.000,5.000,0
"03/07/08","09:04:26",89839.000,"cc",28342.455,6.00,6,0.100,75234.000,0.200,10430.000,0.300,2163.000,0.500,1543.000,1.000,469.000,5.000,0
"03/07/08","09:04:32",70111.000,"cc",28364.391,6.00,6,0.100,58745.000,0.200,7958.000,0.300,1699.000,0.500,1341.000,1.000,368.000,5.000,0
"03/07/08","09:04:38",52373.000,"cc",28327.438,6.00,6,0.100,43214.000,0.200,6075.000,0.300,1484.000,0.500,1245.000,1.000,355.000,5.000,0
"03/07/08","09:04:44",43214.000,"cc",28274.176,6.00,6,0.100,35498.000,0.200,5039.000,0.300,1265.000,0.500,1067.000,1.000,345.000,5.000,0
"03/07/08","09:04:50",62215.000,"cc",28352.109,6.00,6,0.100,51571.000,0.200,7226.000,0.300,1676.000,0.500,1320.000,1.000,422.000,5.000,0
"03/07/08","09:04:56",52376.000,"cc",28288.477,6.00,6,0.100,43096.000,0.200,6148.000,0.300,1514.000,0.500,1250.000,1.000,368.000,5.000,0
"03/07/08","09:05:02",57732.000,"cc",28330.191,6.00,6,0.100,47703.000,0.200,6654.000,0.300,1597.000,0.500,1357.000,1.000,421.000,5.000,0
"03/07/08","09:05:08",56314.000,"cc",28338.783,6.00,6,0.100,47040.000,0.200,6570.000,0.300,1388.000,0.500,1027.000,1.000,289.000,5.000,0
"03/07/08","09:05:14",74415.000,"cc",28338.119,6.00,6,0.100,62424.000,0.200,8574.000,0.300,1701.000,0.500,1318.000,1.000,398.000,5.000,0
"03/07/08","09:05:20",91283.000,"cc",28290.156,6.00,6,0.100,77367.000,0.200,10415.000,0.300,1859.000,0.500,1266.000,1.000,376.000,5.000,0
"03/07/08","09:05:26",28758.000,"cc",28246.924,6.00,6,0.100,22959.000,0.200,3473.000,0.300,1087.000,0.500,958.000,1.000,281.000,5.000,0
"03/07/08","09:05:32",44484.000,"cc",28418.248,6.00,6,0.100,36475.000,0.200,5245.000,0.300,1333.000,0.500,1089.000,1.000,342.000,5.000,0
"03/07/08","09:05:38",65434.000,"cc",28282.020,6.00,6,0.100,54467.000,0.200,7561.000,0.300,1664.000,0.500,1348.000,1.000,394.000,5.000,0
"03/07/08","09:05:44",75435.000,"cc",28298.574,6.00,6,0.100,62845.000,0.200,8837.000,0.300,1841.000,0.500,1443.000,1.000,469.000,5.000,0
"03/07/08","09:05:50",51299.000,"cc",28300.361,6.00,6,0.100,42102.000,0.200,5968.000,0.300,1570.000,0.500,1270.000,1.000,389.000,5.000,0
"03/07/08","09:05:56",34878.000,"cc",28386.533,6.00,6,0.100,26960.000,0.200,4425.000,0.300,1687.000,0.500,1400.000,1.000,406.000,5.000,0
"03/07/08","09:06:02",50524.000,"cc",28281.395,6.00,6,0.100,41246.000,0.200,5910.000,0.300,1635.000,0.500,1305.000,1.000,428.000,5.000,0
"03/07/08","09:06:08",66372.000,"cc",28236.650,6.00,6,0.100,54166.000,0.200,8071.000,0.300,2027.000,0.500,1653.000,1.000,455.000,5.000,0
"03/07/08","09:06:14",52921.000,"cc",28288.678,6.00,6,0.100,40962.000,0.200,6810.000,0.300,2436.000,0.500,2084.000,1.000,629.000,5.000,0
"03/07/08","09:06:20",52468.000,"cc",28324.975,6.00,6,0.100,41135.000,0.200,6715.000,0.300,2240.000,0.500,1822.000,1.000,556.000,5.000,0
"03/07/08","09:06:26",31180.000,"cc",28329.824,6.00,6,0.100,24066.000,0.200,3957.000,0.300,1516.000,0.500,1306.000,1.000,335.000,5.000,0
"03/07/08","09:06:32",33802.000,"cc",28322.311,6.00,6,0.100,26190.000,0.200,4337.000,0.300,1565.000,0.500,1318.000,1.000,391.000,5.000,1.000
"03/07/08","09:06:38",38513.000,"cc",28293.580,6.00,6,0.100,30637.000,0.200,4815.000,0.300,1442.000,0.500,1273.000,1.000,346.000,5.000,0
"03/07/08","09:06:44",43174.000,"cc",28349.725,6.00,6,0.100,34407.000,0.200,5401.000,0.300,1592.000,0.500,1367.000,1.000,407.000,5.000,0
"03/07/08","09:06:50",61596.000,"cc",28328.461,6.00,6,0.100,49728.000,0.200,7641.000,0.300,2088.000,0.500,1696.000,1.000,443.000,5.000,0
"03/07/08","09:06:56",118178.000,"cc",28338.643,6.00,6,0.100,97495.000,0.200,14551.000,0.300,3178.000,0.500,2272.000,1.000,682.000,5.000,0
"03/07/08","09:07:02",102159.000,"cc",28276.424,6.00,6,0.100,84464.000,0.200,12389.000,0.300,2720.000,0.500,1999.000,1.000,587.000,5.000,0
"03/07/08","09:07:08",80273.000,"cc",28334.254,6.00,6,0.100,66595.000,0.200,9551.000,0.300,2134.000,0.500,1507.000,1.000,486.000,5.000,0
"03/07/08","09:07:14",39394.000,"cc",28336.822,6.00,6,0.100,32095.000,0.200,4609.000,0.300,1322.000,0.500,1060.000,1.000,308.000,5.000,0
"03/07/08","09:07:20",40392.000,"cc",28286.709,6.00,6,0.100,33358.000,0.200,4650.000,0.300,1169.000,0.500,934.000,1.000,281.000,5.000,0
"03/07/08","09:07:26",54550.000,"cc",28333.865,6.00,6,0.100,45564.000,0.200,6207.000,0.300,1363.000,0.500,1099.000,1.000,317.000,5.000,0
"03/07/08","09:07:32",42777.000,"cc",28335.711,6.00,6,0.100,35331.000,0.200,4919.000,0.300,1247.000,0.500,995.000,1.000,285.000,5.000,0
"03/07/08","09:07:38",74745.000,"cc",28316.941,6.00,6,0.100,62389.000,0.200,8835.000,0.300,1793.000,0.500,1329.000,1.000,398.000,5.000,1.000
"03/07/08","09:07:44",91188.000,"cc",28291.830,6.00,6,0.100,76368.000,0.200,10715.000,0.300,2089.000,0.500,1554.000,1.000,462.000,5.000,0
"03/07/08","09:07:50",37426.000,"cc",28326.051,6.00,6,0.100,29596.000,0.200,4654.000,0.300,1514.000,0.500,1247.000,1.000,415.000,5.000,0
"03/07/08","09:07:56",55916.000,"cc",28335.729,6.00,6,0.100,45551.000,0.200,6677.000,0.300,1851.000,0.500,1429.000,1.000,408.000,5.000,0
"03/07/08","09:08:02",57578.000,"cc",28337.315,6.00,6,0.100,47704.000,0.200,6756.000,0.300,1576.000,0.500,1182.000,1.000,360.000,5.000,0
"03/07/08","09:08:08",79725.000,"cc",28298.949,6.00,6,0.100,66607.000,0.200,9367.000,0.300,1866.000,0.500,1435.000,1.000,450.000,5.000,0
"03/07/08","09:08:14",39252.000,"cc",28326.191,6.00,6,0.100,29726.000,0.200,5279.000,0.300,2074.000,0.500,1678.000,1.000,495.000,5.000,0
"03/07/08","09:08:20",36521.000,"cc",28266.443,6.00,6,0.100,28146.000,0.200,4709.000,0.300,1703.000,0.500,1498.000,1.000,465.000,5.000,0
"03/07/08","09:08:26",46802.000,"cc",28335.967,6.00,6,0.100,37301.000,0.200,5755.000,0.300,1787.000,0.500,1486.000,1.000,473.000,5.000,0
"03/07/08","09:08:32",28981.000,"cc",28302.723,6.00,6,0.100,21763.000,0.200,3829.000,0.300,1653.000,0.500,1314.000,1.000,422.000,5.000,0
"03/07/08","09:08:38",37442.000,"cc",28276.236,6.00,6,0.100,29177.000,0.200,4719.000,0.300,1756.000,0.500,1373.000,1.000,417.000,5.000,0
"03/07/08","09:08:44",42962.000,"cc",28350.770,6.00,6,0.100,34238.000,0.200,5285.000,0.300,1615.000,0.500,1355.000,1.000,469.000,5.000,0
"03/07/08","09:08:50",36517.000,"cc",28293.617,6.00,6,0.100,29283.000,0.200,4401.000,0.300,1360.000,0.500,1160.000,1.000,313.000,5.000,0
"03/07/08","09:08:56",46684.000,"cc",28285.174,6.00,6,0.100,38157.000,0.200,5500.000,0.300,1444.000,0.500,1243.000,1.000,340.000,5.000,0
"03/07/08","09:09:02",79088.000,"cc",28360.010,6.00,6,0.100,66830.000,0.200,8888.000,0.300,1684.000,0.500,1327.000,1.000,359.000,5.000,0
"03/07/08","09:09:08",125039.000,"cc",28375.223,6.00,6,0.100,106638.000,0.200,14357.000,0.300,2094.000,0.500,1519.000,1.000,430.000,5.000,1.000
"03/07/08","09:09:14",179590.000,"cc",28291.938,6.00,6,0.100,154053.000,0.200,20937.000,0.300,2507.000,0.500,1608.000,1.000,485.000,5.000,0
"03/07/08","09:09:20",175199.000,"cc",28330.856,6.00,6,0.100,149734.000,0.200,21170.000,0.300,2416.000,0.500,1437.000,1.000,442.000,5.000,0
"03/07/08","09:09:26",79428.000,"cc",28330.000,6.00,6,0.100,67944.000,0.200,8750.000,0.300,1386.000,0.500,1052.000,1.000,296.000,5.000,0
"03/07/08","09:09:32",55938.000,"cc",28245.473,6.00,6,0.100,47185.000,0.200,6264.000,0.300,1228.000,0.500,960.000,1.000,301.000,5.000,0
"03/07/08","09:09:38",69494.000,"cc",28339.121,6.00,6,0.100,59080.000,0.200,7721.000,0.300,1375.000,0.500,1010.000,1.000,308.000,5.000,0
"03/07/08","09:09:44",141142.000,"cc",28270.615,6.00,6,0.100,120638.000,0.200,16508.000,0.300,2181.000,0.500,1440.000,1.000,375.000,5.000,0
"03/07/08","09:09:50",168374.000,"cc",28352.152,6.00,6,0.100,143220.000,0.200,19980.000,0.300,2862.000,0.500,1788.000,1.000,524.000,5.000,0
"03/07/08","09:09:56",205587.000,"cc",28316.293,6.00,6,0.100,176613.000,0.200,24299.000,0.300,2677.000,0.500,1551.000,1.000,447.000,5.000,0
"03/07/08","09:10:02",286816.000,"cc",28295.375,6.00,6,0.100,243555.000,0.200,37407.000,0.300,3522.000,0.500,1813.000,1.000,519.000,5.000,0
"03/07/08","09:10:08",226101.000,"cc",28347.578,6.00,6,0.100,193915.000,0.200,27270.000,0.300,2817.000,0.500,1640.000,1.000,459.000,5.000,0
"03/07/08","09:10:14",234393.000,"cc",28326.199,6.00,6,0.100,200197.000,0.200,28799.000,0.300,3079.000,0.500,1810.000,1.000,508.000,5.000,0
"03/07/08","09:10:20",138177.000,"cc",28278.764,6.00,6,0.100,118478.000,0.200,15756.000,0.300,2161.000,0.500,1395.000,1.000,387.000,5.000,0
"03/07/08","09:10:26",112904.000,"cc",28334.070,6.00,6,0.100,96791.000,0.200,12875.000,0.300,1773.000,0.500,1137.000,1.000,328.000,5.000,0
"03/07/08","09:10:32",195088.000,"cc",28376.420,6.00,6,0.100,167529.000,0.200,23415.000,0.300,2420.000,0.500,1361.000,1.000,363.000,5.000,0
"03/07/08","09:10:38",167082.000,"cc",28277.426,6.00,6,0.100,143627.000,0.200,19347.000,0.300,2328.000,0.500,1427.000,1.000,353.000,5.000,0
"03/07/08","09:10:44",146930.000,"cc",28287.430,6.00,6,0.100,125350.000,0.200,16988.000,0.300,2506.000,0.500,1650.000,1.000,436.000,5.000,0
"03/07/08","09:10:50",146544.000,"cc",28333.522,6.00,6,0.100,124132.000,0.200,17395.000,0.300,2720.000,0.500,1798.000,1.000,499.000,5.000,0
"03/07/08","09:10:56",161948.000,"cc",28309.273,6.00,6,0.100,137905.000,0.200,19357.000,0.300,2568.000,0.500,1648.000,1.000,470.000,5.000,0
"03/07/08","09:11:02",163184.000,"cc",28309.190,6.00,6,0.100,139114.000,0.200,19453.000,0.300,2553.000,0.500,1567.000,1.000,497.000,5.000,0
"03/07/08","09:11:08",228460.000,"cc",28297.078,6.00,6,0.100,194046.000,0.200,28787.000,0.300,3225.000,0.500,1904.000,1.000,498.000,5.000,0
"03/07/08","09:11:14",180141.000,"cc",28344.824,6.00,6,0.100,153653.000,0.200,21686.000,0.300,2685.000,0.500,1607.000,1.000,510.000,5.000,0
"03/07/08","09:11:20",190772.000,"cc",28381.551,6.00,6,0.100,163019.000,0.200,23025.000,0.300,2724.000,0.500,1569.000,1.000,435.000,5.000,0
"03/07/08","09:11:26",170057.000,"cc",28291.246,6.00,6,0.100,144936.000,0.200,20623.000,0.300,2479.000,0.500,1593.000,1.000,426.000,5.000,0
"03/07/08","09:11:32",167357.000,"cc",28309.031,6.00,6,0.100,143306.000,0.200,19882.000,0.300,2391.000,0.500,1360.000,1.000,418.000,5.000,0
"03/07/08","09:11:38",169592.000,"cc",28270.566,6.00,6,0.100,145691.000,0.200,19897.000,0.300,2298.000,0.500,1320.000,1.000,386.000,5.000,0
"03/07/08","09:11:44",151779.000,"cc",28329.375,6.00,6,0.100,130455.000,0.200,17917.000,0.300,1933.000,0.500,1172.000,1.000,302.000,5.000,0
"03/07/08","09:11:50",153677.000,"cc",28375.473,6.00,6,0.100,132736.000,0.200,17676.000,0.300,1895.000,0.500,1085.000,1.000,285.000,5.000,0
"03/07/08","09:11:56",230764.000,"cc",28287.293,6.00,6,0.100,196919.000,0.200,29082.000,0.300,2790.000,0.500,1546.000,1.000,427.000,5.000,0
"03/07/08","09:12:02",212562.000,"cc",28327.547,6.00,6,0.100,182180.000,0.200,25999.000,0.300,2537.000,0.500,1450.000,1.000,396.000,5.000,0
"03/07/08","09:12:08",188184.000,"cc",28294.732,6.00,6,0.100,160639.000,0.200,22781.000,0.300,2587.000,0.500,1713.000,1.000,464.000,5.000,0
"03/07/08","09:12:14",163011.000,"cc",28342.330,6.00,6,0.100,139659.000,0.200,19060.000,0.300,2357.000,0.500,1508.000,1.000,427.000,5.000,0
"03/07/08","09:12:20",153256.000,"cc",28317.762,6.00,6,0.100,129968.000,0.200,18418.000,0.300,2654.000,0.500,1743.000,1.000,473.000,5.000,0
"03/07/08","09:12:26",86290.000,"cc",28308.590,6.00,6,0.100,71432.000,0.200,10390.000,0.300,2279.000,0.500,1703.000,1.000,486.000,5.000,0
"03/07/08","09:12:32",113366.000,"cc",28302.918,6.00,6,0.100,96123.000,0.200,13212.000,0.300,2119.000,0.500,1505.000,1.000,407.000,5.000,0
"03/07/08","09:12:38",163324.000,"cc",28338.172,6.00,6,0.100,139708.000,0.200,19487.000,0.300,2284.000,0.500,1439.000,1.000,406.000,5.000,0
"03/07/08","09:12:44",208714.000,"cc",28294.482,6.00,6,0.100,178377.000,0.200,25765.000,0.300,2610.000,0.500,1522.000,1.000,440.000,5.000,0
"03/07/08","09:12:50",185228.000,"cc",28375.025,6.00,6,0.100,159074.000,0.200,22141.000,0.300,2295.000,0.500,1358.000,1.000,360.000,5.000,0
"03/07/08","09:12:56",218627.000,"cc",28252.223,6.00,6,0.100,187488.000,0.200,26735.000,0.300,2607.000,0.500,1374.000,1.000,423.000,5.000,0
"03/07/08","09:13:02",253159.000,"cc",28347.977,6.00,6,0.100,215240.000,0.200,33200.000,0.300,2880.000,0.500,1451.000,1.000,388.000,5.000,0
"03/07/08","09:13:08",316604.000,"cc",28284.705,6.00,6,0.100,252776.000,0.200,57306.000,0.300,4335.000,0.500,1665.000,1.000,522.000,5.000,0
"03/07/08","09:13:14",298069.000,"cc",28268.572,6.00,6,0.100,253779.000,0.200,39163.000,0.300,3263.000,0.500,1485.000,1.000,379.000,5.000,0
"03/07/08","09:13:20",199165.000,"cc",28335.977,6.00,6,0.100,170840.000,0.200,23940.000,0.300,2523.000,0.500,1435.000,1.000,427.000,5.000,0
"03/07/08","09:13:26",213761.000,"cc",28330.828,6.00,6,0.100,182394.000,0.200,26598.000,0.300,2737.000,0.500,1583.000,1.000,449.000,5.000,0
"03/07/08","09:13:32",225217.000,"cc",28279.225,6.00,6,0.100,192197.000,0.200,27852.000,0.300,2947.000,0.500,1709.000,1.000,512.000,5.000,0
"03/07/08","09:13:38",179519.000,"cc",28370.809,6.00,6,0.100,153637.000,0.200,21338.000,0.300,2579.000,0.500,1539.000,1.000,426.000,5.000,0
"03/07/08","09:13:44",177013.000,"cc",28349.779,6.00,6,0.100,150924.000,0.200,21238.000,0.300,2675.000,0.500,1735.000,1.000,441.000,5.000,0
"03/07/08","09:13:50",148064.000,"cc",28240.576,6.00,6,0.100,125347.000,0.200,17754.000,0.300,2640.000,0.500,1822.000,1.000,501.000,5.000,0
"03/07/08","09:13:56",203751.000,"cc",28319.740,6.00,6,0.100,172030.000,0.200,25287.000,0.300,3511.000,0.500,2208.000,1.000,715.000,5.000,0
"03/07/08","09:14:02",266472.000,"cc",28337.481,6.00,6,0.100,224942.000,0.200,34817.000,0.300,3908.000,0.500,2154.000,1.000,651.000,5.000,0
"03/07/08","09:14:08",249355.000,"cc",28340.807,6.00,6,0.100,211898.000,0.200,32650.000,0.300,2946.000,0.500,1446.000,1.000,415.000,5.000,0
"03/07/08","09:14:14",265448.000,"cc",28328.875,6.00,6,0.100,226338.000,0.200,34464.000,0.300,2913.000,0.500,1344.000,1.000,389.000,5.000,0
"03/07/08","09:14:20",293590.000,"cc",28315.826,6.00,6,0.100,249656.000,0.200,39167.000,0.300,3135.000,0.500,1318.000,1.000,314.000,5.000,0
"03/07/08","09:14:26",270333.000,"cc",28277.936,6.00,6,0.100,230548.000,0.200,35158.000,0.300,2898.000,0.500,1360.000,1.000,369.000,5.000,0
"03/07/08","09:14:32",285342.000,"cc",28363.143,6.00,6,0.100,242377.000,0.200,37716.000,0.300,3302.000,0.500,1509.000,1.000,438.000,5.000,0
"03/07/08","09:14:38",248742.000,"cc",28274.617,6.00,6,0.100,212287.000,0.200,31811.000,0.300,2885.000,0.500,1349.000,1.000,410.000,5.000,0
"03/07/08","09:14:44",282515.000,"cc",28357.057,6.00,6,0.100,238737.000,0.200,38433.000,0.300,3361.000,0.500,1524.000,1.000,460.000,5.000,0
"03/07/08","09:14:50",295232.000,"cc",28312.787,6.00,6,0.100,214062.000,0.200,73827.000,0.300,5301.000,0.500,1605.000,1.000,437.000,5.000,0
"03/07/08","09:14:56",324808.000,"cc",28342.066,6.00,6,0.100,258916.000,0.200,59419.000,0.300,4378.000,0.500,1639.000,1.000,456.000,5.000,0
"03/07/08","09:15:02",368169.000,"cc",28309.930,6.00,6,0.100,307321.000,0.200,54439.000,0.300,4251.000,0.500,1679.000,1.000,479.000,5.000,0
"03/07/08","09:15:08",314916.000,"cc",28326.205,6.00,6,0.100,264405.000,0.200,43882.000,0.300,4141.000,0.500,1955.000,1.000,533.000,5.000,0
"03/07/08","09:15:14",375824.000,"cc",28276.504,6.00,6,0.100,311185.000,0.200,56836.000,0.300,5107.000,0.500,2104.000,1.000,592.000,5.000,0
"03/07/08","09:15:20",394540.000,"cc",28358.553,6.00,6,0.100,299376.000,0.200,85399.000,0.300,6889.000,0.500,2228.000,1.000,648.000,5.000,0
"03/07/08","09:15:26",301803.000,"cc",28287.459,6.00,6,0.100,191350.000,0.200,99876.000,0.300,7684.000,0.500,2249.000,1.000,644.000,5.000,0
"03/07/08","09:15:32",320416.000,"cc",28286.342,6.00,6,0.100,253279.000,0.200,60161.000,0.300,4677.000,0.500,1798.000,1.000,501.000,5.000,0
"03/07/08","09:15:38",369635.000,"cc",28316.705,6.00,6,0.100,290904.000,0.200,71399.000,0.300,5078.000,0.500,1757.000,1.000,497.000,5.000,0
"03/07/08","09:15:44",278295.000,"cc",28364.857,6.00,6,0.100,219256.000,0.200,52145.000,0.300,4367.000,0.500,1957.000,1.000,570.000,5.000,0
"03/07/08","09:15:50",200720.000,"cc",28351.979,6.00,6,0.100,171400.000,0.200,24841.000,0.300,2560.000,0.500,1479.000,1.000,439.000,5.000,1.000
"03/07/08","09:15:56",215498.000,"cc",28305.688,6.00,6,0.100,183508.000,0.200,27365.000,0.300,2675.000,0.500,1506.000,1.000,444.000,5.000,0
"03/07/08","09:16:02",221574.000,"cc",28218.373,6.00,6,0.100,187809.000,0.200,28494.000,0.300,3068.000,0.500,1724.000,1.000,479.000,5.000,0
"03/07/08","09:16:08",212505.000,"cc",28351.986,6.00,6,0.100,180562.000,0.200,26988.000,0.300,2885.000,0.500,1640.000,1.000,430.000,5.000,0
"03/07/08","09:16:14",270168.000,"cc",28339.379,6.00,6,0.100,228614.000,0.200,36114.000,0.300,3335.000,0.500,1617.000,1.000,488.000,5.000,0